FlightSource - Aviation Photo Database

World Wide Airport Lookup


Search by ICAO
Or
Search by City

FlightSource.ca - Aviation Photo Database - Almirante Padilla Airport Information
Airport Identification
Name: Almirante Padilla Airport
ICAO: SKRH
IATA: RCH
Airport Location
City: Riohacha
Region: LAG
Country: Colombia
Continent: South America
Latitude: 11.53
Longitude: -72.93
Airport Information
Type: Medium Airport
Elevation: 43 Feet ASL
Flight Status: SKRH
More Info: SKRH
Airport Weather    
Metar: SKRH 202300Z 04008KT 9999 FEW013CB 28/25 A2975 RMK CB SW
TAF:


Advertisement